Station BATN6 - 8518750 - The Battery, NY Image indicating link to RSS feed of recent meteorological observations for station BATN6


Conditions at BATN6 as of
(6:00 pm EDT)
2200 GMT on 04/17/2024:
     

Click on the graph icon in the table below to see a time series plot of the last five days of that observation.

5-day plot - Atmospheric Pressure Atmospheric Pressure (PRES):30.01 in
5-day plot - Pressure Tendency Pressure Tendency (PTDY):-0.05 in ( Falling )
5-day plot - Water Temperature Water Temperature (WTMP): 49.3 °F
NOS Water Level Observation Network Water Level
Previous observations
TIME
(EDT)
5-day plot - Wind Direction
WDIR
 
5-day plot - Wind Speed
WSPD
kts
5-day plot - Wind Gust
GST
kts
5-day plot - Wave Height
WVHT
ft
5-day plot - Dominant Wave Period
DPD
sec
5-day plot - Average Wave Period
APD
sec
5-day plot - Mean Wave Direction
MWD
 
5-day plot - Atmospheric Pressure
PRES
in
5-day plot - Pressure Tendency
PTDY
in
5-day plot - Air Temperature
ATMP
°F
5-day plot - Water Temperature
WTMP
°F
5-day plot - Dew Point
DEWP
°F
5-day plot - Salinity
SAL
psu
5-day plot - Visibility
VIS
nmi
5-day plot - Tide (above MLLW)
TIDE
ft
2024-04-17 05:54 pm-------30.01-- 49.3----
2024-04-17 05:48 pm-------30.00- 51.1 49.3----
2024-04-17 05:42 pm-------30.01- 51.3 49.1----
2024-04-17 05:36 pm-------30.01- 51.1 49.1----
2024-04-17 05:30 pm-------30.02- 51.3 49.3----
2024-04-17 05:24 pm-------30.02- 51.3 49.1----
2024-04-17 05:18 pm-------30.02- 51.4 49.1----
2024-04-17 05:12 pm-------30.02- 51.4 48.9----
2024-04-17 05:06 pm-------30.02- 51.3 48.9----
2024-04-17 05:00 pm-------30.03-0.04 51.3 48.9----
2024-04-17 04:54 pm-------30.03- 51.1 48.9----
2024-04-17 04:48 pm-------30.03- 51.4 48.7----
2024-04-17 04:42 pm-------30.02- 51.8 48.9----
2024-04-17 04:36 pm-------30.02- 52.0 48.9----
2024-04-17 04:30 pm-------30.03- 52.2 48.9----
2024-04-17 04:24 pm-------30.04- 52.0 48.6----
2024-04-17 04:18 pm-------30.04- 52.0 48.9----
2024-04-17 04:12 pm-------30.05- 52.0 48.9----
2024-04-17 04:06 pm-------30.04- 52.3 48.6----
2024-04-17 04:00 pm-------30.03-0.04 52.3 48.2----
2024-04-17 03:54 pm-------30.03- 52.5 48.4----
2024-04-17 03:48 pm-------30.04- 52.5 48.9----
2024-04-17 03:42 pm-------30.05- 52.9 49.1----
2024-04-17 03:36 pm-------30.05- 53.2 49.1----
2024-04-17 03:30 pm-------30.05- 53.4 49.1----
2024-04-17 03:24 pm-------30.05- 53.2 49.3----
2024-04-17 03:18 pm-------30.05- 53.2 49.1----
2024-04-17 03:12 pm-------30.06- 52.9 49.5----
2024-04-17 03:06 pm-------30.05- 52.9 49.5----
2024-04-17 03:00 pm-------30.06-0.04 53.2 49.6----
2024-04-17 02:54 pm-------30.06- 53.2 49.6----
2024-04-17 02:48 pm-------30.06- 53.4 49.6----
2024-04-17 02:42 pm-------30.06- 53.2 49.6----
2024-04-17 02:36 pm-------30.06- 53.8 49.6----
2024-04-17 02:30 pm-------30.06- 53.8 49.8----
2024-04-17 02:24 pm-------30.06- 54.1 49.8----
2024-04-17 02:18 pm-------30.06- 54.1 49.8----
2024-04-17 02:12 pm-------30.06- 54.0 49.6----
2024-04-17 02:06 pm-------30.06- 54.1 49.6----
2024-04-17 02:00 pm-------30.07-0.04 54.3 49.6----
2024-04-17 01:54 pm-------30.07- 54.7 49.5----
2024-04-17 01:48 pm-------30.07- 55.8 49.5----
2024-04-17 01:42 pm-------30.07- 55.9 49.6----
2024-04-17 01:36 pm-------30.07- 56.1 49.6----
2024-04-17 01:30 pm-------30.07- 55.6 49.6----
2024-04-17 01:24 pm-------30.07- 55.6 49.6----
2024-04-17 01:18 pm-------30.07- 56.3 49.6----
2024-04-17 01:12 pm-------30.08- 56.5 49.5----
2024-04-17 01:06 pm-------30.07- 56.7 49.6----
2024-04-17 01:00 pm-------30.07-0.04 57.2 49.5----
2024-04-17 12:54 pm-------30.08- 57.0 49.5----
2024-04-17 12:48 pm-------30.08- 57.6 49.5----
2024-04-17 12:42 pm-------30.08- 57.2 49.5----
2024-04-17 12:36 pm-------30.09- 57.4 49.6----
2024-04-17 12:30 pm-------30.09- 57.0 50.0----
2024-04-17 12:24 pm-------30.09- 57.2 49.8----
2024-04-17 12:18 pm-------30.09- 56.8 49.6----
2024-04-17 12:12 pm-------30.10- 57.4 49.6----
2024-04-17 12:06 pm-------30.10- 57.2 49.5----
2024-04-17 12:00 pm-------30.10-0.03 57.4 49.3----
2024-04-17 11:54 am-------30.10- 57.2 49.5----
2024-04-17 11:48 am-------30.10- 57.7 49.5----
2024-04-17 11:42 am-------30.10- 57.6 49.3----
2024-04-17 11:36 am-------30.10- 57.2 49.5----
2024-04-17 11:30 am-------30.10- 57.6 49.5----
2024-04-17 11:24 am-------30.10- 57.7 49.6----
2024-04-17 11:18 am-------30.11- 57.6 49.3----
2024-04-17 11:12 am-------30.11- 57.7 49.1----
2024-04-17 11:06 am-------30.11- 57.4 49.1----
2024-04-17 11:00 am-------30.11-0.01 57.2 49.1----
2024-04-17 10:54 am-------30.11- 57.4 49.1----
2024-04-17 10:48 am-------30.11- 58.1 49.1----
2024-04-17 10:42 am-------30.11- 57.7 49.1----
2024-04-17 10:36 am-------30.11- 57.4 49.1----
2024-04-17 10:30 am-------30.11- 57.2 49.1----
2024-04-17 10:24 am-------30.11- 58.5 49.1----
2024-04-17 10:18 am-------30.11- 58.5 49.1----
2024-04-17 10:12 am-------30.11- 58.3 48.9----
2024-04-17 10:06 am-------30.11- 58.3 49.1----
2024-04-17 10:00 am-------30.11-0.01 59.0 49.1----
2024-04-17 09:54 am-------30.11- 58.8 48.7----
2024-04-17 09:48 am-------30.11- 59.4 48.9----
2024-04-17 09:42 am-------30.11- 59.0 49.1----
2024-04-17 09:36 am-------30.11- 58.6 48.9----
2024-04-17 09:30 am-------30.11- 57.7 48.9----
2024-04-17 09:24 am-------30.12- 57.0 48.9----
2024-04-17 09:18 am-------30.12- 56.3 48.9----
2024-04-17 09:12 am-------30.12- 56.3 48.9----
2024-04-17 09:06 am-------30.13- 55.9 49.1----
2024-04-17 09:00 am-------30.13+0.01 55.8 48.9----
2024-04-17 08:54 am-------30.12- 55.6 49.1----
2024-04-17 08:48 am-------30.12- 55.9 49.1----
2024-04-17 08:42 am-------30.12- 56.3 48.9----
2024-04-17 08:36 am-------30.12- 56.3 48.9----
2024-04-17 08:30 am--------- 56.1-----
2024-04-17 08:24 am--------- 56.3-----
2024-04-17 08:18 am-------30.11- 56.8 49.3----
2024-04-17 08:12 am-------30.11- 56.7 49.3----
2024-04-17 08:06 am-------30.11- 56.7 49.3----
2024-04-17 08:00 am-------30.12+0.00 56.7 49.5----
2024-04-17 07:54 am-------30.12- 56.5 49.5----
2024-04-17 07:48 am-------30.12- 56.5 49.5----
2024-04-17 07:42 am-------30.12- 56.7 49.5----
2024-04-17 07:36 am-------30.12- 56.7 49.3----
2024-04-17 07:30 am-------30.12- 55.8 49.3----
2024-04-17 07:24 am-------30.12- 55.2 49.3----
2024-04-17 07:18 am-------30.12- 54.1 49.3----
2024-04-17 07:12 am-------30.13- 53.2 49.3----
2024-04-17 07:06 am-------30.12- 53.6 49.3----
2024-04-17 07:00 am-------30.12+0.04 53.2 49.5----
2024-04-17 06:54 am-------30.12- 53.4 49.5----
2024-04-17 06:48 am-------30.13- 53.2 49.3----
2024-04-17 06:42 am-------30.13- 53.2 49.3----
2024-04-17 06:36 am-------30.13- 52.3 49.5----
2024-04-17 06:30 am-------30.13- 52.3 49.3----
2024-04-17 06:24 am-------30.12- 52.0 49.3----
2024-04-17 06:18 am-------30.12- 52.2 49.3----
2024-04-17 06:12 am-------30.11- 52.2 49.3----
2024-04-17 06:06 am-------30.11- 52.0 49.3----
2024-04-17 06:00 am-------30.11+0.01 51.6 49.3----
2024-04-17 05:54 am-------30.12- 51.4 49.3----
2024-04-17 05:48 am-------30.11- 51.3 49.3----
2024-04-17 05:42 am-------30.11- 51.4 49.3----
2024-04-17 05:36 am-------30.12- 51.6 49.1----
2024-04-17 05:30 am-------30.12- 51.8 49.1----
2024-04-17 05:24 am-------30.11- 51.6 49.1----
2024-04-17 05:18 am-------30.11- 52.2 48.9----
2024-04-17 05:12 am-------30.11- 51.8 48.9----
2024-04-17 05:06 am-------30.12- 51.4 48.9----
2024-04-17 05:00 am-------30.12+0.03 51.1 48.9----
2024-04-17 04:54 am-------30.12- 51.1 48.9----
2024-04-17 04:48 am-------30.11- 51.4 48.9----
2024-04-17 04:42 am-------30.10- 52.9 48.9----
2024-04-17 04:36 am-------30.11- 52.9 48.9----
2024-04-17 04:30 am-------30.09- 53.1 48.9----
2024-04-17 04:24 am-------30.09- 52.3 48.9----
2024-04-17 04:18 am-------30.09- 53.8 48.9----
2024-04-17 04:12 am-------30.09- 53.2 48.7----
2024-04-17 04:06 am-------30.09- 52.3 48.7----
2024-04-17 04:00 am-------30.09-0.04 54.0 48.7----
2024-04-17 03:54 am-------30.09- 53.1 48.7----
2024-04-17 03:48 am-------30.09- 53.4 48.7----
2024-04-17 03:42 am-------30.10- 53.2 48.6----
2024-04-17 03:36 am-------30.10- 52.9 48.6----
2024-04-17 03:30 am-------30.10- 52.5 48.4----
2024-04-17 03:24 am-------30.10- 52.5 48.2----
2024-04-17 03:18 am-------30.10- 52.7 48.2----
2024-04-17 03:12 am-------30.10- 52.3 48.0----
2024-04-17 03:06 am-------30.10- 52.2 47.7----
2024-04-17 03:00 am-------30.10+0.00 51.4 48.0----
2024-04-17 02:54 am-------30.10- 51.8 48.4----
2024-04-17 02:48 am-------30.09- 52.2 48.9----
2024-04-17 02:42 am-------30.09- 53.1 48.9----
2024-04-17 02:36 am-------30.09- 53.4 48.9----
2024-04-17 02:30 am-------30.09- 53.6 48.9----
2024-04-17 02:24 am-------30.09- 54.0 48.9----
2024-04-17 02:18 am-------30.09- 54.3 49.1----
2024-04-17 02:12 am-------30.09- 54.9 49.1----
2024-04-17 02:06 am-------30.09- 54.9 49.1----
2024-04-17 02:00 am-------30.09-0.02 54.1 49.1----
2024-04-17 01:54 am-------30.10- 53.8 49.1----
2024-04-17 01:48 am-------30.10- 53.6 49.1----
2024-04-17 01:42 am-------30.11- 54.0 49.1----
2024-04-17 01:36 am-------30.11- 54.3 49.1----
2024-04-17 01:30 am-------30.11- 54.5 49.1----
2024-04-17 01:24 am-------30.11- 54.3 49.1----
2024-04-17 01:18 am-------30.11- 55.2 49.3----
2024-04-17 01:12 am-------30.11- 55.0 49.3----
2024-04-17 01:06 am-------30.12- 54.7 49.3----
2024-04-17 01:00 am-------30.12+0.03 55.0 49.3----
2024-04-17 12:54 am-------30.12- 55.2 49.3----
2024-04-17 12:48 am-------30.13- 54.5 49.3----
2024-04-17 12:42 am-------30.12- 54.7 49.1----
2024-04-17 12:36 am-------30.12- 54.9 49.1----
2024-04-17 12:30 am-------30.12- 55.0 49.1----
2024-04-17 12:24 am-------30.12- 55.2 49.1----
2024-04-17 12:18 am-------30.12- 55.0 49.1----
2024-04-17 12:12 am-------30.11- 55.2 49.1----
2024-04-17 12:06 am-------30.11- 55.6 49.1----
2024-04-17 12:00 am-------30.11+0.03 55.9 49.1----
2024-04-16 11:54 pm-------30.11- 56.1 49.1----
2024-04-16 11:48 pm-------30.10- 56.5 49.3----
2024-04-16 11:42 pm-------30.11- 56.3 49.3----
2024-04-16 11:36 pm-------30.11- 56.8 49.3----
2024-04-16 11:30 pm-------30.11- 56.5 49.3----
2024-04-16 11:24 pm-------30.11- 56.5 49.3----
2024-04-16 11:18 pm-------30.11- 56.3 49.3----
2024-04-16 11:12 pm-------30.11- 56.3 49.3----
2024-04-16 11:06 pm-------30.11- 56.5 49.3----
2024-04-16 11:00 pm-------30.11+0.06 56.5 49.3----
2024-04-16 10:54 pm-------30.11- 56.3 49.3----
2024-04-16 10:48 pm-------30.10- 56.1 49.3----
2024-04-16 10:42 pm-------30.11- 56.3 49.3----
2024-04-16 10:36 pm-------30.11- 56.7 49.3----
2024-04-16 10:30 pm-------30.11- 57.6 49.3----
2024-04-16 10:24 pm-------30.11- 58.3 49.3----
2024-04-16 10:18 pm-------30.11- 59.2 49.3----
2024-04-16 10:12 pm-------30.10- 59.5 49.3----
2024-04-16 10:06 pm-------30.10- 59.9 49.3----
2024-04-16 10:00 pm-------30.10+0.07 59.9 49.5----
2024-04-16 09:54 pm-------30.09- 60.1 49.3----
2024-04-16 09:48 pm-------30.09- 60.1 49.1----
2024-04-16 09:42 pm-------30.09- 60.1 49.3----
2024-04-16 09:36 pm-------30.09- 60.6 49.3----
2024-04-16 09:30 pm-------30.08- 60.4 49.3----
2024-04-16 09:24 pm-------30.08- 60.8 49.1----
2024-04-16 09:18 pm-------30.08- 60.8 49.3----
2024-04-16 09:12 pm-------30.08- 60.6 49.3----
2024-04-16 09:06 pm-------30.08- 60.4 49.3----
2024-04-16 09:00 pm-------30.08+0.06 61.2 49.3----
2024-04-16 08:54 pm-------30.07- 60.4 49.3----
2024-04-16 08:48 pm-------30.07- 60.8 49.3----
2024-04-16 08:42 pm-------30.07- 61.7 49.3----
2024-04-16 08:36 pm-------30.06- 61.7 49.3----
2024-04-16 08:30 pm-------30.06- 61.5 49.3----
2024-04-16 08:24 pm-------30.06- 61.9 49.3----
2024-04-16 08:18 pm-------30.06- 61.2 49.3----
2024-04-16 08:12 pm-------30.05- 59.5 49.3----
2024-04-16 08:06 pm-------30.05- 60.1 49.5----
2024-04-16 08:00 pm-------30.05+0.02 59.0 49.5----
2024-04-16 07:54 pm-------30.04- 66.9 49.8----
2024-04-16 07:48 pm-------30.04- 69.1 49.6----
2024-04-16 07:42 pm-------30.04- 69.1 49.6----
2024-04-16 07:36 pm-------30.03- 69.4 49.6----
2024-04-16 07:30 pm-------30.03- 69.8 49.8----
2024-04-16 07:24 pm-------30.03- 70.2 49.8----
2024-04-16 07:00 pm-------30.03+0.00 71.2-----
2024-04-16 06:54 pm-------30.03- 71.4-----
2024-04-16 06:48 pm-------30.03- 71.1 50.0----
2024-04-16 06:42 pm-------30.03- 70.7 49.8----
2024-04-16 06:36 pm-------30.03- 70.5 49.6----
2024-04-16 06:30 pm-------30.03-- 49.8----
2024-04-16 06:24 pm-------30.03-- 49.8----
2024-04-16 06:18 pm-------30.03-- 49.6----
2024-04-16 06:12 pm-------30.03-- 49.6----
2024-04-16 06:06 pm-------30.02-- 49.6----
2024-04-16 06:00 pm-------30.02-0.01 70.5 49.6----
2024-04-16 05:54 pm-------30.02- 72.1 49.6----